Location: Newark
(40.7360°N, 74.1730°W)
Time: 01:26:42
(UTC-04:00)

Amateur Radio Satellites - All Passes

Search period start: 25 September 2016 00:56
Search period end: 26 September 2016 00:56
Location: Newark, 40.7360°N, 74.1730°W

Satellite Date Start Highest point End Downlink Frequencies (MHz)
Time Altitude Azimuth
DUCHIFAT 1 25 Sep 00:58:02 01:02:11 65° 285° (WNW) 01:06:20 145.980
Cosmos 2491 25 Sep 01:00:10 01:06:11 20° 62° (ENE) 01:12:10 435.465 / 435.565
VELOX 1 25 Sep 01:06:19 01:09:36 20° 266° (W) 01:12:53 145.980
SWISSCUBE 25 Sep 01:07:07 01:08:56 12° 60° (ENE) 01:10:46 437.505
DX 1 25 Sep 01:09:29 01:13:13 27° 264° (W) 01:16:57 434.975-435.025
POPSAT HIP 1 25 Sep 01:09:33 01:13:32 42° 288° (WNW) 01:17:30 437.405
BUGSAT 1 25 Sep 01:15:00 01:19:01 78° 101° (E) 01:23:02 437.445
BEESAT 25 Sep 01:19:38 01:22:13 15° 62° (ENE) 01:24:48 436.000
CUBEBUG 1 25 Sep 01:22:08 01:23:18 11° 270° (W) 01:24:28 437.445
NANOSAT C BR1 25 Sep 01:28:42 01:32:16 28° 291° (WNW) 01:35:50 145.865
Oscar 19 25 Sep 01:30:26 01:34:25 22° 94° (E) 01:38:21 437.125/150
JAS-2 25 Sep 01:48:06 01:55:38 51° 292° (WNW) 02:02:56 435.910
QB50P2 25 Sep 01:49:36 01:52:08 16° 295° (WNW) 01:54:41 145.880/145.840
ISS 25 Sep 01:50:07 01:51:50 13° 8° (N) 01:53:32 145.825
POLYITAN 1 25 Sep 01:51:52 01:54:23 16° 295° (WNW) 01:56:54 437.675
BEESAT 3 25 Sep 01:54:01 01:57:49 55° 119° (ESE) 02:01:40 437.485
SO-50 25 Sep 01:57:58 02:02:10 37° 245° (WSW) 02:06:16 436.795
Gurwin Techsat 1B 25 Sep 02:00:31 02:04:27 21° 93° (E) 02:08:22 435.225
YUBILEINY 25 Sep 02:03:02 02:08:27 18° 78° (ENE) 02:13:51 435.215
TISAT 1 25 Sep 02:13:39 02:17:19 29° 263° (W) 02:21:01 437.305
ITUPSAT 1 25 Sep 02:26:19 02:31:01 65° 74° (ENE) 02:35:46 437.325
RS-15 25 Sep 02:34:01 02:43:25 24° 14° (NNE) 02:52:50 29.354- 29.394
SWISSCUBE 25 Sep 02:41:18 02:46:03 79° 257° (WSW) 02:50:51 437.505
BEESAT 2 25 Sep 02:42:14 02:46:10 87° 303° (WNW) 02:50:10 435.950
BEESAT 25 Sep 02:54:45 02:59:27 64° 258° (WSW) 03:04:11 436.000
Cosmos 2491 25 Sep 02:55:23 03:04:17 89° 265° (W) 03:13:07 435.465 / 435.565
Oscar 19 25 Sep 03:09:02 03:13:54 43° 290° (WNW) 03:18:44 437.125/150
Cosmos 2504 25 Sep 03:10:33 03:14:30 15° 80° (E) 03:18:21 435.465 / 435.565
MOZHAYETS 4 25 Sep 03:14:31 03:18:35 33° 70° (ENE) 03:22:42
STARS 25 Sep 03:14:32 03:15:34 11° 61° (ENE) 03:16:36 437.465
AO-7 25 Sep 03:19:15 03:25:06 21° 92° (E) 03:30:54 29.400- 29.500
ISS 25 Sep 03:26:04 03:29:06 32° 28° (NNE) 03:32:07 145.825
BEESAT 3 25 Sep 03:33:22 03:35:48 16° 316° (NW) 03:38:16 437.485
JAS-2 25 Sep 03:37:15 03:38:49 11° 311° (NW) 03:40:22 435.910
Gurwin Techsat 1B 25 Sep 03:39:31 03:44:38 49° 289° (WNW) 03:49:44 435.225
ITAMSAT 1 25 Sep 03:54:22 03:59:35 67° 102° (ESE) 04:04:46 435.822/435.867
YUBILEINY 25 Sep 03:55:11 04:04:00 88° 277° (W) 04:12:50 435.215
PCSat 25 Sep 03:55:47 03:57:14 11° 102° (ESE) 03:58:41 145.827
KKS-1 25 Sep 04:03:55 04:08:22 76° 76° (ENE) 04:12:50 437.445
ITUPSAT 1 25 Sep 04:07:09 04:09:17 13° 270° (W) 04:11:26 437.325
BEESAT 2 25 Sep 04:23:21 04:24:36 11° 321° (NW) 04:25:52 435.950
CUBESAT XI-V 25 Sep 04:25:26 04:29:15 25° 67° (ENE) 04:33:06 437.345
AIST 2 25 Sep 04:35:49 04:39:46 51° 118° (ESE) 04:43:48 435.215
AIST 1 25 Sep 04:44:15 04:45:45 12° 84° (E) 04:47:17
STARS 25 Sep 04:46:54 04:51:17 77° 258° (WSW) 04:55:41 437.465
RS-15 25 Sep 04:47:50 04:59:52 52° 46° (NE) 05:11:39 29.354- 29.394
MOZHAYETS 4 25 Sep 04:52:09 04:55:47 23° 266° (W) 04:59:27
Cosmos 2491 25 Sep 04:54:35 04:59:47 17° 283° (WNW) 05:04:57 435.465 / 435.565
Cosmos 2504 25 Sep 04:59:20 05:06:53 85° 277° (W) 05:14:08 435.465 / 435.565
ISS 25 Sep 05:02:36 05:05:34 31° 224° (SW) 05:08:31 145.825
CUSAT 1 25 Sep 05:06:51 05:11:41 17° 58° (ENE) 05:16:11 437.405
AO-7 25 Sep 05:10:22 05:18:41 81° 290° (WNW) 05:26:58 29.400- 29.500
HORYU 2 25 Sep 05:16:25 05:19:43 20° 94° (E) 05:23:02 437.375
PCSat 25 Sep 05:34:21 05:39:46 89° 118° (ESE) 05:45:14 145.827
ITAMSAT 1 25 Sep 05:35:19 05:38:29 16° 299° (WNW) 05:41:39 435.822/435.867
BRITE-PL 25 Sep 05:39:33 05:43:15 21° 91° (E) 05:46:44 437.365/2234.400
STRAND 1 25 Sep 05:49:01 05:50:09 11° 58° (ENE) 05:51:16 437.568
YUBILEINY 25 Sep 05:56:26 06:02:07 18° 298° (WNW) 06:07:49 435.215
AO-85 25 Sep 05:58:53 06:02:06 21° 44° (NE) 06:05:10 145.980
CUBESAT XI-V 25 Sep 06:02:15 06:06:28 33° 264° (W) 06:10:44 437.345
DANDE 25 Sep 06:04:11 06:10:24 23° 63° (ENE) 06:16:32 436.750
LilacSat-2 25 Sep 06:14:21 06:16:34 15° 92° (E) 06:18:47 437.200
AIST 2 25 Sep 06:15:42 06:18:33 18° 316° (NW) 06:21:25 435.215
AIST 1 25 Sep 06:18:28 06:22:47 58° 280° (W) 06:27:08
CUSAT 1 25 Sep 06:47:07 06:55:07 81° 80° (E) 07:01:54 437.405
HORYU 2 25 Sep 06:52:18 06:56:22 36° 290° (WNW) 07:00:27 437.375
Cosmos 2504 25 Sep 06:57:41 07:01:20 14° 297° (WNW) 07:04:57 435.465 / 435.565
RS-15 25 Sep 07:00:44 07:12:30 54° 249° (WSW) 07:23:59 29.354- 29.394
NOAA 15 25 Sep 07:03:51 07:09:09 67° 102° (ESE) 07:14:24 137.62
AO-7 25 Sep 07:04:53 07:10:13 19° 310° (NW) 07:15:33 29.400- 29.500
Cubesat XI-IV 25 Sep 07:08:17 07:13:35 60° 101° (E) 07:18:52 437.490
CUTE-I 25 Sep 07:09:30 07:14:49 62° 101° (ESE) 07:20:06 437.470
BRITE-PL 25 Sep 07:17:20 07:21:55 38° 290° (WNW) 07:26:09 437.365/2234.400
PCSat 25 Sep 07:20:32 07:23:55 16° 318° (NW) 07:27:19 145.827
GOMX 1 25 Sep 07:23:00 07:27:31 76° 284° (WNW) 07:31:44 467.674
NOAA 18 25 Sep 07:23:18 07:28:45 64° 102° (ESE) 07:34:10 137.9125
STRAND 1 25 Sep 07:23:23 07:28:29 83° 75° (ENE) 07:33:36 437.568
CANX-2 25 Sep 07:36:20 07:38:09 12° 90° (E) 07:39:57 2200.000
CUTE 1.7 + AOD 2 25 Sep 07:36:50 07:37:28 10° 89° (E) 07:38:07 437.475
AO-85 25 Sep 07:38:52 07:42:42 38° 244° (WSW) 07:46:19 145.980
HO-68 25 Sep 07:42:22 07:47:36 21° 92° (E) 07:52:47 435.675
DANDE 25 Sep 07:45:45 07:54:09 87° 263° (W) 08:02:12 436.750
LilacSat-2 25 Sep 07:47:28 07:50:59 36° 288° (WNW) 07:54:32 437.200
O/OREOS (USA 219) 25 Sep 07:49:24 07:53:45 47° 107° (ESE) 07:58:10 437.305
CINEMA 3 25 Sep 07:58:52 08:02:21 25° 96° (E) 08:05:52 145.822/145.860
DOVE 4 25 Sep 08:00:36 08:04:51 70° 285° (WNW) 08:08:57 437.250
AAUSAT CUBESAT 2 25 Sep 08:16:22 08:16:48 10° 89° (E) 08:17:15 437.432
GONETS M04 25 Sep 08:18:18 08:25:52 34° 84° (E) 08:33:27
Cosmos 2499 25 Sep 08:21:35 08:27:05 24° 84° (E) 08:32:30 435.465 / 435.565
CUSAT 1 25 Sep 08:30:50 08:35:59 20° 280° (W) 08:40:43 437.405
NOAA 15 25 Sep 08:45:06 08:48:21 17° 299° (WNW) 08:51:35 137.62
Cubesat XI-IV 25 Sep 08:49:33 08:53:10 19° 298° (WNW) 08:56:47 437.490
CUTE-I 25 Sep 08:50:49 08:54:20 18° 298° (WNW) 08:57:52 437.470
PRISM 25 Sep 08:51:10 08:55:17 67° 74° (ENE) 08:59:27 437.425
ZACube-1 25 Sep 08:54:15 08:55:50 12° 90° (E) 08:57:27 437.345
COMPASS 1 25 Sep 08:54:23 08:58:21 37° 98° (E) 09:02:15 437.405
Oscar 11 25 Sep 08:58:08 09:00:04 13° 90° (E) 09:02:00 145.826/435.025
NOAA 18 25 Sep 09:05:16 09:08:52 18° 299° (WNW) 09:12:27 137.9125
STRAND 1 25 Sep 09:07:06 09:08:16 11° 271° (W) 09:09:26 437.568
CUTE 1.7 + AOD 2 25 Sep 09:09:27 09:13:44 66° 285° (WNW) 09:17:59 437.475
CANX-2 25 Sep 09:10:06 09:14:20 56° 286° (WNW) 09:18:32 2200.000
SEEDS 25 Sep 09:16:45 09:21:02 79° 284° (WNW) 09:25:17 437.485
TIGRISAT 25 Sep 09:19:09 09:21:40 15° 65° (ENE) 09:24:10 435.000
CUBEBUG 2 25 Sep 09:27:01 09:31:16 69° 101° (E) 09:35:36 437.445
HO-68 25 Sep 09:28:46 09:35:53 70° 290° (WNW) 09:42:58 435.675
O/OREOS (USA 219) 25 Sep 09:30:14 09:33:26 18° 305° (NW) 09:36:40 437.305
DANDE 25 Sep 09:30:31 09:35:48 19° 280° (W) 09:40:59 436.750
CINEMA 3 25 Sep 09:36:01 09:39:25 25° 291° (WNW) 09:42:51 145.822/145.860
FUNcube-1 25 Sep 09:48:01 09:52:08 44° 99° (E) 09:56:20 145.935
AAUSAT CUBESAT 2 25 Sep 09:48:31 09:52:42 64° 285° (WNW) 09:56:49 437.432
UWE-3 25 Sep 09:51:44 09:56:01 85° 99° (E) 10:00:25 435.000/436.395/437.385
UNISAT 6 25 Sep 09:56:58 10:01:00 41° 72° (ENE) 10:05:01 437.425
DELFI C3 25 Sep 10:00:32 10:03:49 24° 95° (E) 10:07:04 145.870
BEESAT 3 25 Sep 10:11:28 10:15:01 30° 50° (NE) 10:18:33 437.485
Cosmos 2499 25 Sep 10:12:37 10:19:40 55° 282° (WNW) 10:26:35 435.465 / 435.565
GONETS M04 25 Sep 10:13:41 10:22:14 53° 283° (WNW) 10:30:54
JAS-2 25 Sep 10:17:54 10:21:25 15° 53° (NE) 10:25:06 435.910
ZACube-1 25 Sep 10:28:13 10:32:27 59° 286° (WNW) 10:36:46 437.345
POPSAT HIP 1 25 Sep 10:28:26 10:30:06 12° 63° (ENE) 10:31:46 437.405
COMPASS 1 25 Sep 10:30:41 10:33:36 18° 294° (WNW) 10:36:30 437.405
ANTELSAT 25 Sep 10:32:14 10:36:31 78° 257° (WSW) 10:40:48 437.575/2403.000
Oscar 11 25 Sep 10:32:16 10:36:32 56° 286° (WNW) 10:40:47 145.826/435.025
NANOSAT C BR1 25 Sep 10:45:35 10:48:25 18° 66° (ENE) 10:51:16 145.865
TIGRISAT 25 Sep 10:53:52 10:57:59 46° 260° (W) 11:02:06 435.000
BEESAT 2 25 Sep 11:00:24 11:04:19 48° 54° (NE) 11:08:12 435.950
QB50P2 25 Sep 11:04:59 11:08:45 32° 70° (ENE) 11:12:32 145.880/145.840
CUBEBUG 2 25 Sep 11:06:09 11:07:21 11° 297° (WNW) 11:08:34 437.445
POLYITAN 1 25 Sep 11:07:15 11:11:00 32° 70° (ENE) 11:14:46 437.675
ESTCUBE 1 25 Sep 11:09:12 11:10:26 11° 89° (E) 11:11:41 437.505/2401.250
HUMSAT D 25 Sep 11:15:20 11:19:36 89° 107° (ESE) 11:23:53 437.325/437.525
HO-68 25 Sep 11:19:03 11:22:19 14° 309° (NW) 11:25:36 435.675
FUNcube-1 25 Sep 11:25:18 11:28:03 17° 294° (WNW) 11:30:49 145.935
CUBEBUG 1 25 Sep 11:33:07 11:34:52 12° 90° (E) 11:36:38 437.445
UNISAT 6 25 Sep 11:35:14 11:37:55 16° 267° (W) 11:40:35 437.425
DELFI C3 25 Sep 11:35:15 11:38:34 25° 291° (WNW) 11:41:53 145.870
QB50P1 25 Sep 11:47:53 11:52:06 85° 257° (WSW) 11:56:20 145.935-145.965
DUCHIFAT 1 25 Sep 11:49:08 11:53:20 86° 71° (ENE) 11:57:32 145.980
BEESAT 3 25 Sep 11:49:19 11:52:32 24° 247° (WSW) 11:55:44 437.485
JAS-2 25 Sep 11:58:49 12:05:05 79° 74° (ENE) 12:12:16 435.910
POPSAT HIP 1 25 Sep 12:01:13 12:05:21 61° 259° (W) 12:09:32 437.405
BUGSAT 1 25 Sep 12:04:06 12:08:06 50° 73° (ENE) 12:12:04 437.445
PHONESAT 2.4 25 Sep 12:07:37 12:10:06 25° 155° (SSE) 12:12:36 2401.200-2431.200
AISAT 25 Sep 12:11:43 12:15:28 27° 96° (E) 12:19:10 437.250
NANOSAT C BR1 25 Sep 12:19:57 12:23:52 38° 262° (W) 12:27:48 145.865
50 SAT 25 Sep 12:23:00 12:26:18 31° 97° (E) 12:29:35 437.505
SPROUT 25 Sep 12:26:50 12:30:01 20° 94° (E) 12:33:12 437.525
AUBIESAT-1 25 Sep 12:26:52 12:28:27 13° 98° (E) 12:30:02 437.475
UKube-1 25 Sep 12:34:52 12:38:13 22° 95° (E) 12:41:32 .
BEESAT 2 25 Sep 12:39:28 12:41:43 15° 250° (WSW) 12:43:57 435.950
PCSat 25 Sep 12:41:09 12:43:29 13° 38° (NE) 12:45:49 145.827
QB50P2 25 Sep 12:41:28 12:44:36 20° 266° (W) 12:47:46 145.880/145.840
ESTCUBE 1 25 Sep 12:43:10 12:47:42 69° 285° (WNW) 12:52:11 437.505/2401.250
POLYITAN 1 25 Sep 12:43:44 12:46:51 20° 266° (W) 12:49:59 437.675
Oscar 19 25 Sep 12:46:45 12:51:20 32° 68° (ENE) 12:55:55 437.125/150
VELOX 1 25 Sep 12:55:08 12:59:34 78° 103° (ESE) 13:03:57 145.980
DX 1 25 Sep 12:57:07 13:01:21 50° 100° (E) 13:05:33 434.975-435.025
AIST 2 25 Sep 12:57:23 13:01:11 32° 50° (NE) 13:04:59 435.215
M-CUBED/EXP-1 PRIME 25 Sep 13:00:17 13:03:29 46° 105° (ESE) 13:06:38 437.505
CUBEBUG 1 25 Sep 13:07:15 13:11:31 57° 286° (WNW) 13:15:44 437.445
Gurwin Techsat 1B 25 Sep 13:21:06 13:25:46 33° 67° (ENE) 13:30:28 435.225
ITAMSAT 1 25 Sep 13:36:13 13:38:30 13° 59° (ENE) 13:40:47 435.822/435.867
BUGSAT 1 25 Sep 13:41:55 13:43:44 13° 268° (W) 13:45:34 437.445
PHONESAT 2.4 25 Sep 13:43:03 13:46:00 75° 171° (S) 13:48:59 2401.200-2431.200
JAS-2 25 Sep 13:47:05 13:51:04 17° 274° (W) 13:55:21 435.910
AISAT 25 Sep 13:48:09 13:51:51 27° 292° (WNW) 13:55:32 437.250
50 SAT 25 Sep 13:57:11 13:59:34 17° 293° (WNW) 14:01:56 437.505
TISAT 1 25 Sep 13:57:11 14:01:06 39° 99° (E) 14:05:01 437.305
AUBIESAT-1 25 Sep 14:00:06 14:03:03 30° 294° (WNW) 14:05:59 437.475
SPROUT 25 Sep 14:02:12 14:06:01 33° 290° (WNW) 14:09:49 437.525
Cosmos 2491 25 Sep 14:02:25 14:08:34 22° 79° (E) 14:14:43 435.465 / 435.565
YUBILEINY 25 Sep 14:05:59 14:14:18 46° 75° (ENE) 14:22:32 435.215
UKube-1 25 Sep 14:10:26 14:14:18 32° 290° (WNW) 14:18:07 .
AO-7 25 Sep 14:17:54 14:24:51 31° 57° (ENE) 14:31:48 29.400- 29.500
PCSat 25 Sep 14:22:32 14:27:57 66° 59° (ENE) 14:33:19 145.827
Oscar 19 25 Sep 14:26:02 14:30:35 31° 264° (W) 14:35:11 437.125/150
ITUPSAT 1 25 Sep 14:28:11 14:31:18 17° 92° (E) 14:34:25 437.325
VELOX 1 25 Sep 14:34:28 14:35:22 11° 299° (WNW) 14:36:16 145.980
DX 1 25 Sep 14:34:35 14:37:07 15° 296° (WNW) 14:39:38 434.975-435.025
AIST 2 25 Sep 14:36:05 14:39:32 25° 247° (WSW) 14:42:57 435.215
SWISSCUBE 25 Sep 14:42:09 14:46:12 27° 96° (E) 14:50:15 437.505
Cosmos 2504 25 Sep 14:51:31 14:58:02 32° 73° (ENE) 15:04:51 435.465 / 435.565
BEESAT 25 Sep 14:55:16 14:59:35 32° 97° (E) 15:03:52 436.000
Gurwin Techsat 1B 25 Sep 15:00:59 15:05:40 31° 264° (W) 15:10:23 435.225
ITAMSAT 1 25 Sep 15:12:04 15:17:14 84° 256° (WSW) 15:22:27 435.822/435.867
PHONESAT 2.4 25 Sep 15:19:10 15:22:08 78° 188° (S) 15:25:07 2401.200-2431.200
TISAT 1 25 Sep 15:33:42 15:36:26 17° 295° (WNW) 15:39:10 437.305
Cosmos 2491 25 Sep 15:55:34 16:04:20 78° 278° (W) 16:13:14 435.465 / 435.565
KKS-1 25 Sep 15:56:37 15:59:02 14° 92° (E) 16:01:27 437.445
YUBILEINY 25 Sep 16:03:07 16:10:53 38° 274° (W) 16:18:39 435.215
ITUPSAT 1 25 Sep 16:04:44 16:09:24 50° 288° (WNW) 16:14:02 437.325
PCSat 25 Sep 16:07:26 16:10:44 17° 256° (WSW) 16:14:04 145.827
AO-7 25 Sep 16:08:52 16:17:05 63° 256° (WSW) 16:25:21 29.400- 29.500
SO-50 25 Sep 16:10:50 16:15:40 74° 120° (ESE) 16:20:28 436.795
HORYU 2 25 Sep 16:14:31 16:17:38 19° 65° (ENE) 16:20:45 437.375
SWISSCUBE 25 Sep 16:19:44 16:23:58 32° 292° (WNW) 16:28:12 437.505
O/OREOS (USA 219) 25 Sep 16:22:53 16:23:59 11° 50° (NE) 16:25:05 437.305
AIST 1 25 Sep 16:25:59 16:29:50 31° 76° (ENE) 16:33:38
BEESAT 25 Sep 16:33:15 16:37:13 27° 293° (WNW) 16:41:12 436.000
STARS 25 Sep 16:37:22 16:40:29 19° 94° (E) 16:43:36 437.465
Cosmos 2504 25 Sep 16:44:33 16:51:32 47° 270° (W) 16:58:56 435.465 / 435.565
MOZHAYETS 4 25 Sep 16:46:05 16:50:44 83° 101° (E) 16:55:23
NOAA 15 25 Sep 16:47:07 16:49:48 14° 59° (ENE) 16:52:30 137.62
BRITE-PL 25 Sep 16:48:36 16:53:25 29° 67° (ENE) 16:58:12 437.365/2234.400
Cubesat XI-IV 25 Sep 16:53:45 16:56:03 13° 59° (ENE) 16:58:21 437.490
GOMX 1 25 Sep 16:54:27 16:57:19 15° 63° (ENE) 17:00:07 467.674
CUTE-I 25 Sep 16:54:39 16:57:05 13° 59° (ENE) 16:59:32 437.470
PHONESAT 2.4 25 Sep 16:55:30 16:58:05 27° 204° (SSW) 17:00:40 2401.200-2431.200
NOAA 18 25 Sep 17:11:32 17:14:54 17° 60° (ENE) 17:18:15 137.9125
DOVE 4 25 Sep 17:30:24 17:32:38 13° 63° (ENE) 17:34:49 437.250
KKS-1 25 Sep 17:31:36 17:35:53 50° 288° (WNW) 17:40:09 437.445
HORYU 2 25 Sep 17:49:45 17:53:54 40° 261° (W) 17:58:04 437.375
SO-50 25 Sep 17:53:23 17:56:39 18° 318° (NW) 17:59:54 436.795
Cosmos 2491 25 Sep 17:57:53 18:02:48 16° 301° (WNW) 18:07:45 435.465 / 435.565
CUBESAT XI-V 25 Sep 17:58:25 18:03:06 62° 101° (E) 18:07:43 437.345
O/OREOS (USA 219) 25 Sep 17:59:29 18:04:07 87° 65° (ENE) 18:08:42 437.305
AIST 1 25 Sep 18:04:04 18:07:11 20° 273° (W) 18:10:17
CUSAT 1 25 Sep 18:10:09 18:12:27 12° 75° (ENE) 18:14:54 437.405
HO-68 25 Sep 18:12:27 18:16:46 17° 54° (NE) 18:21:05 435.675
STARS 25 Sep 18:12:56 18:16:57 37° 290° (WNW) 18:20:58 437.465
NOAA 15 25 Sep 18:23:34 18:28:52 80° 257° (WSW) 18:34:14 137.62
MOZHAYETS 4 25 Sep 18:25:59 18:27:12 11° 299° (WNW) 18:28:25
BRITE-PL 25 Sep 18:26:20 18:31:39 41° 263° (W) 18:36:59 437.365/2234.400
LilacSat-2 25 Sep 18:28:33 18:32:17 82° 255° (WSW) 18:36:05 437.200
GOMX 1 25 Sep 18:29:19 18:34:47 78° 258° (WSW) 18:40:03 467.674
GONETS M04 25 Sep 18:29:28 18:34:27 16° 59° (ENE) 18:39:22
Cubesat XI-IV 25 Sep 18:30:03 18:35:21 87° 257° (WSW) 18:40:42 437.490
CUTE-I 25 Sep 18:31:06 18:36:24 84° 257° (WSW) 18:41:44 437.470
NOAA 18 25 Sep 18:49:29 18:54:57 70° 257° (WSW) 19:00:25 137.9125
CINEMA 3 25 Sep 19:00:16 19:03:56 25° 69° (ENE) 19:07:30 145.822/145.860
DOVE 4 25 Sep 19:04:39 19:09:46 77° 258° (WSW) 19:14:38 437.250
RS-15 25 Sep 19:12:57 19:22:08 29° 102° (ESE) 19:31:39 29.354- 29.394
DANDE 25 Sep 19:14:44 19:17:02 13° 76° (ENE) 19:19:34 436.750
STRAND 1 25 Sep 19:34:33 19:39:00 29° 96° (E) 19:43:26 437.568
CUBESAT XI-V 25 Sep 19:37:25 19:39:56 14° 297° (WNW) 19:42:26 437.345
COMPASS 1 25 Sep 19:45:03 19:48:27 25° 69° (ENE) 19:51:53 437.405
CUSAT 1 25 Sep 19:46:56 19:52:47 79° 97° (E) 20:00:11 437.405
Oscar 11 25 Sep 19:54:33 19:55:03 10° 61° (ENE) 19:55:33 145.826/435.025
HO-68 25 Sep 19:56:16 20:03:27 85° 74° (ENE) 20:10:40 435.675
CUTE 1.7 + AOD 2 25 Sep 20:01:21 20:05:34 82° 76° (ENE) 20:09:50 437.475
CANX-2 25 Sep 20:02:04 20:06:17 85° 257° (WSW) 20:10:34 2200.000
Cosmos 2499 25 Sep 20:02:24 20:09:37 49° 77° (ENE) 20:17:22 435.465 / 435.565
SEEDS 25 Sep 20:07:44 20:11:53 66° 75° (ENE) 20:16:06 437.485
GONETS M04 25 Sep 20:24:00 20:32:52 78° 81° (E) 20:41:37
CUBEBUG 2 25 Sep 20:24:48 20:28:56 53° 74° (ENE) 20:33:00 437.445
CINEMA 3 25 Sep 20:36:59 20:40:58 29° 264° (W) 20:44:49 145.822/145.860
AAUSAT CUBESAT 2 25 Sep 20:37:53 20:42:02 78° 76° (ENE) 20:46:14 437.432
FUNcube-1 25 Sep 20:43:30 20:47:09 31° 71° (ENE) 20:50:50 145.935
DELFI C3 25 Sep 20:47:04 20:49:16 14° 65° (ENE) 20:51:27 145.870
UWE-3 25 Sep 20:48:21 20:52:29 64° 75° (ENE) 20:56:35 435.000/436.395/437.385
DANDE 25 Sep 20:53:38 20:58:24 75° 282° (WNW) 21:04:52 436.750
STRAND 1 25 Sep 21:13:34 21:18:10 34° 292° (WNW) 21:22:45 437.568
COMPASS 1 25 Sep 21:20:23 21:23:54 26° 265° (W) 21:27:27 437.405
RS-15 25 Sep 21:21:37 21:33:15 79° 304° (NW) 21:45:34 29.354- 29.394
ZACube-1 25 Sep 21:23:31 21:27:40 80° 256° (WSW) 21:31:49 437.345
Oscar 11 25 Sep 21:26:13 21:30:31 77° 257° (WSW) 21:34:52 145.826/435.025
CUSAT 1 25 Sep 21:31:29 21:35:55 19° 300° (WNW) 21:40:57 437.405
ISS 25 Sep 21:41:52 21:45:06 89° 204° (SSW) 21:48:24 145.825
HO-68 25 Sep 21:47:41 21:51:58 17° 270° (W) 21:56:16 435.675
AO-85 25 Sep 21:51:11 21:56:24 69° 119° (ESE) 22:01:18 145.980
Cosmos 2499 25 Sep 21:56:01 22:02:26 32° 274° (W) 22:09:14 435.465 / 435.565
CUBEBUG 2 25 Sep 22:04:09 22:05:52 12° 269° (W) 22:07:34 437.445
HUMSAT D 25 Sep 22:06:06 22:10:04 56° 74° (ENE) 22:14:05 437.325/437.525
PRISM 25 Sep 22:08:03 22:12:11 71° 285° (WNW) 22:16:17 437.425
ESTCUBE 1 25 Sep 22:09:07 22:10:22 11° 61° (ENE) 22:11:37 437.505/2401.250
DELFI C3 25 Sep 22:19:53 22:23:42 44° 261° (W) 22:27:34 145.870
FUNcube-1 25 Sep 22:20:26 22:23:28 20° 266° (W) 22:26:31 145.935
GONETS M04 25 Sep 22:22:31 22:28:37 21° 281° (W) 22:34:42
ANTELSAT 25 Sep 22:24:28 22:27:52 21° 94° (E) 22:31:17 437.575/2403.000
CUBEBUG 1 25 Sep 22:29:43 22:31:04 11° 62° (ENE) 22:32:26 437.445
DANDE 25 Sep 22:41:34 22:42:55 11° 307° (NW) 22:44:20 436.750
TIGRISAT 25 Sep 22:45:15 22:49:14 34° 97° (E) 22:53:17 435.000
50 SAT 25 Sep 23:00:38 23:02:35 14° 66° (ENE) 23:04:33 437.505
SO-50 25 Sep 23:04:59 23:05:48 10° 34° (NNE) 23:06:37 436.795
AISAT 25 Sep 23:08:52 23:12:28 24° 67° (ENE) 23:16:04 437.250
JAS-2 25 Sep 23:10:58 23:14:44 14° 84° (E) 23:18:26 435.910
AUBIESAT-1 25 Sep 23:11:33 23:14:41 22° 64° (ENE) 23:17:41 437.475
ISS 25 Sep 23:19:33 23:21:59 19° 341° (NNW) 23:24:25 145.825
SPROUT 25 Sep 23:20:44 23:23:22 16° 65° (ENE) 23:25:59 437.525
UNISAT 6 25 Sep 23:24:47 23:29:10 82° 286° (WNW) 23:33:39 437.425
UKube-1 25 Sep 23:29:29 23:32:30 19° 65° (ENE) 23:35:33 .
AO-85 25 Sep 23:33:37 23:37:16 20° 316° (NW) 23:40:47 145.980
QB50P1 25 Sep 23:34:05 23:36:36 15° 92° (E) 23:39:07 145.935-145.965
DUCHIFAT 1 25 Sep 23:35:03 23:37:09 13° 92° (E) 23:39:15 145.980
RS-15 25 Sep 23:37:57 23:48:04 31° 332° (NNW) 23:58:34 29.354- 29.394
ESTCUBE 1 25 Sep 23:41:58 23:46:29 79° 258° (WSW) 23:51:04 437.505/2401.250
HUMSAT D 25 Sep 23:44:57 23:46:02 11° 270° (W) 23:47:09 437.325/437.525
M-CUBED/EXP-1 PRIME 25 Sep 23:45:35 23:49:48 67° 70° (ENE) 23:53:42 437.505
POPSAT HIP 1 25 Sep 23:46:47 23:50:00 21° 94° (E) 23:53:13 437.405
VELOX 1 25 Sep 23:51:44 23:56:09 66° 74° (ENE) 00:00:35 145.980
DX 1 25 Sep 23:52:07 23:56:15 42° 71° (ENE) 00:00:23 434.975-435.025
ANTELSAT 26 Sep 00:00:40 00:04:37 34° 289° (WNW) 00:08:38 437.575/2403.000
CUBEBUG 1 26 Sep 00:02:19 00:06:44 74° 257° (WSW) 00:11:10 437.445
NANOSAT C BR1 26 Sep 00:04:24 00:08:10 31° 97° (E) 00:11:55 145.865
TIGRISAT 26 Sep 00:22:22 00:25:44 22° 293° (WNW) 00:29:08 435.000
QB50P2 26 Sep 00:25:12 00:29:23 64° 101° (E) 00:33:35 145.880/145.840
POLYITAN 1 26 Sep 00:27:26 00:31:37 64° 101° (E) 00:35:49 437.675
50 SAT 26 Sep 00:32:24 00:35:46 36° 262° (W) 00:39:11 437.505
SO-50 26 Sep 00:42:45 00:47:17 58° 54° (NE) 00:51:42 436.795
AISAT 26 Sep 00:44:49 00:48:47 31° 263° (W) 00:52:45 437.250
AUBIESAT-1 26 Sep 00:45:19 00:49:00 30° 257° (WSW) 00:52:28 437.475
TISAT 1 26 Sep 00:48:35 00:52:12 29° 69° (ENE) 00:55:49 437.305
